Check out our new BloomSky Weather System.

Active alerts

Galveston, TX
  Details for Galveston, TX Coastal Flood Advisory  +1 additional alert


Thunder radar  blitzortung!


Rain radar more information rain snow radar


Visit our other weather sites:

Template documentation
and downloads

And another site



Weather Underground History page Text

Daily Summary for May 7, 2017 Units:  English    Metric   Both
« Previous Day
Next Day »
Daily Weekly Monthly Yearly Custom
  High: Low: Average:
Temperature: TemperatureF °F 57.9 °F 72.6 °F
Dew Point: DewpointF °F 55.4 °F 59.4 °F
Humidity: Humidity % 43 % 66 %
Wind Speed: WindSpeedMPH mph 0.0 mph 2.5 mph
Wind Gust: WindSpeedGustMPH mph - -
Wind:- - SE
Pressure: PressureIn in 29.93 in -
Precipitation: 0.00 in    
Historical Graphs
 
 
Tabular Data for May 7, 2017
Time Temperature Dew Point Pressure Wind Wind Speed Wind Gust Humidity Rainfall Rate (Hourly)
TemperatureF °F DewpointF °F PressureIn in Calm     Humidity % HourlyPrecipIn in
00:03 69.6 °F 59.0 °F 29.94 in South 1.0 mph 5.0 mph 69 % 0.00 in
00:08 69.6 °F 59.0 °F 29.94 in SSW 2.0 mph 5.0 mph 69 % 0.00 in
00:13 69.4 °F 59.2 °F 29.94 in SSW 2.0 mph 5.0 mph 70 % 0.00 in
00:18 69.4 °F 59.2 °F 29.94 in South 3.0 mph 3.0 mph 70 % 0.00 in
00:23 69.3 °F 59.5 °F 29.94 in SSE 2.0 mph 4.0 mph 71 % 0.00 in
00:28 69.1 °F 59.4 °F 29.94 in South 2.0 mph 4.0 mph 71 % 0.00 in
00:33 69.1 °F 59.7 °F 29.94 in South 2.0 mph 4.0 mph 72 % 0.00 in
00:38 68.9 °F 59.5 °F 29.94 in SSW 2.0 mph 4.0 mph 72 % 0.00 in
00:43 68.7 °F 59.4 °F 29.94 in Calm   4.0 mph 72 % 0.00 in
00:48 68.5 °F 59.5 °F 29.94 in SSW 1.0 mph 4.0 mph 73 % 0.00 in
00:53 68.4 °F 59.4 °F 29.94 in SSW 1.0 mph 4.0 mph 73 % 0.00 in
00:58 68.2 °F 59.5 °F 29.94 in South 1.0 mph 2.0 mph 74 % 0.00 in
01:04 68.0 °F 59.4 °F 29.94 in South 1.0 mph 2.0 mph 74 % 0.00 in
01:09 67.8 °F 59.5 °F 29.94 in Calm   2.0 mph 75 % 0.00 in
01:14 67.6 °F 59.4 °F 29.94 in Calm   2.0 mph 75 % 0.00 in
01:19 67.3 °F 59.0 °F 29.94 in Calm   2.0 mph 75 % 0.00 in
01:24 67.1 °F 59.4 °F 29.94 in SSW 1.0 mph 2.0 mph 76 % 0.00 in
01:29 66.9 °F 59.5 °F 29.94 in Calm   1.0 mph 77 % 0.00 in
01:34 66.7 °F 59.4 °F 29.94 in Calm   2.0 mph 77 % 0.00 in
01:39 66.4 °F 59.0 °F 29.94 in Calm   2.0 mph 77 % 0.00 in
01:44 65.8 °F 58.5 °F 29.94 in Calm   2.0 mph 77 % 0.00 in
01:49 65.1 °F 58.1 °F 29.94 in Calm   1.0 mph 78 % 0.00 in
01:54 64.8 °F 58.1 °F 29.94 in Calm     79 % 0.00 in
01:59 64.6 °F 58.6 °F 29.94 in Calm     81 % 0.00 in
02:04 64.4 °F 59.2 °F 29.94 in Calm     83 % 0.00 in
02:09 64.2 °F 59.0 °F 29.94 in Calm     83 % 0.00 in
02:14 64.0 °F 58.8 °F 29.93 in Calm     83 % 0.00 in
02:19 63.7 °F 58.5 °F 29.94 in Calm     83 % 0.00 in
02:24 63.5 °F 58.6 °F 29.93 in Calm     84 % 0.00 in
02:29 63.3 °F 58.8 °F 29.93 in Calm     85 % 0.00 in
02:34 63.3 °F 58.8 °F 29.93 in Calm     85 % 0.00 in
02:39 63.0 °F 58.5 °F 29.93 in Calm     85 % 0.00 in
02:44 62.8 °F 58.5 °F 29.93 in Calm     86 % 0.00 in
02:49 62.6 °F 58.3 °F 29.93 in Calm     86 % 0.00 in
02:54 62.4 °F 58.1 °F 29.93 in Calm     86 % 0.00 in
02:59 62.1 °F 58.1 °F 29.93 in Calm     87 % 0.00 in
03:04 61.9 °F 58.3 °F 29.93 in Calm     88 % 0.00 in
03:09 61.9 °F 58.3 °F 29.93 in Calm     88 % 0.00 in
03:14 61.9 °F 58.6 °F 29.94 in Calm     89 % 0.00 in
03:19 61.7 °F 58.5 °F 29.93 in Calm     89 % 0.00 in
03:24 61.5 °F 58.3 °F 29.94 in Calm     89 % 0.00 in
03:29 61.3 °F 58.1 °F 29.94 in Calm     89 % 0.00 in
03:34 61.2 °F 57.9 °F 29.94 in Calm     89 % 0.00 in
03:39 61.0 °F 58.1 °F 29.94 in Calm     90 % 0.00 in
03:44 61.0 °F 58.1 °F 29.94 in Calm     90 % 0.00 in
03:49 61.0 °F 58.1 °F 29.94 in Calm     90 % 0.00 in
03:54 61.0 °F 58.1 °F 29.94 in Calm     90 % 0.00 in
03:59 61.0 °F 58.1 °F 29.93 in Calm     90 % 0.00 in
04:04 60.8 °F 58.1 °F 29.94 in Calm     91 % 0.00 in
04:09 60.6 °F 57.9 °F 29.94 in Calm     91 % 0.00 in
04:14 60.4 °F 57.7 °F 29.94 in Calm     91 % 0.00 in
04:19 60.4 °F 57.7 °F 29.94 in Calm     91 % 0.00 in
04:24 60.3 °F 57.6 °F 29.94 in Calm     91 % 0.00 in
04:29 60.3 °F 57.9 °F 29.94 in Calm     92 % 0.00 in
04:34 60.1 °F 57.7 °F 29.94 in Calm     92 % 0.00 in
04:39 60.1 °F 57.7 °F 29.94 in Calm     92 % 0.00 in
04:44 59.9 °F 57.6 °F 29.94 in Calm     92 % 0.00 in
04:49 59.9 °F 57.6 °F 29.94 in Calm     92 % 0.00 in
04:54 59.5 °F 57.2 °F 29.94 in Calm     92 % 0.00 in
04:59 59.4 °F 57.0 °F 29.94 in Calm     92 % 0.00 in
05:04 59.4 °F 57.4 °F 29.94 in Calm     93 % 0.00 in
05:09 59.4 °F 57.4 °F 29.94 in Calm     93 % 0.00 in
05:14 59.4 °F 57.4 °F 29.94 in Calm     93 % 0.00 in
05:19 59.4 °F 57.4 °F 29.94 in Calm     93 % 0.00 in
05:24 59.2 °F 57.2 °F 29.94 in Calm     93 % 0.00 in
05:29 59.2 °F 57.2 °F 29.94 in Calm     93 % 0.00 in
05:35 59.2 °F 57.4 °F 29.94 in Calm     94 % 0.00 in
05:40 59.2 °F 57.4 °F 29.95 in Calm     94 % 0.00 in
05:45 58.8 °F 56.8 °F 29.94 in Calm     93 % 0.00 in
05:50 58.8 °F 57.0 °F 29.94 in Calm     94 % 0.00 in
05:55 58.8 °F 57.0 °F 29.94 in Calm     94 % 0.00 in
06:00 58.8 °F 57.0 °F 29.95 in Calm     94 % 0.00 in
06:05 58.6 °F 56.8 °F 29.95 in Calm     94 % 0.00 in
06:10 58.6 °F 56.8 °F 29.95 in Calm     94 % 0.00 in
06:15 58.5 °F 56.7 °F 29.96 in Calm     94 % 0.00 in
06:20 58.3 °F 56.5 °F 29.96 in Calm     94 % 0.00 in
06:25 58.3 °F 56.5 °F 29.96 in Calm     94 % 0.00 in
06:30 57.9 °F 56.1 °F 29.96 in Calm     94 % 0.00 in
06:35 57.9 °F 56.5 °F 29.96 in Calm     95 % 0.00 in
06:40 57.9 °F 56.5 °F 29.96 in Calm     95 % 0.00 in
06:45 57.9 °F 56.5 °F 29.97 in Calm     95 % 0.00 in
06:50 57.9 °F 56.5 °F 29.97 in Calm     95 % 0.00 in
06:55 57.9 °F 56.5 °F 29.97 in Calm     95 % 0.00 in
07:00 57.9 °F 56.5 °F 29.97 in Calm     95 % 0.00 in
07:05 58.1 °F 56.7 °F 29.97 in Calm     95 % 0.00 in
07:10 58.3 °F 56.8 °F 29.97 in Calm     95 % 0.00 in
07:15 58.6 °F 57.6 °F 29.98 in Calm     96 % 0.00 in
07:20 59.7 °F 58.6 °F 29.98 in Calm     96 % 0.00 in
07:25 61.0 °F 59.9 °F 29.98 in Calm     96 % 0.00 in
07:30 62.1 °F 61.0 °F 29.99 in Calm     96 % 0.00 in
07:35 63.0 °F 61.5 °F 29.99 in Calm     95 % 0.00 in
07:40 63.9 °F 62.4 °F 29.99 in Calm     95 % 0.00 in
07:45 64.9 °F 63.1 °F 29.99 in Calm     94 % 0.00 in
07:50 66.0 °F 63.9 °F 29.99 in Calm     93 % 0.00 in
07:55 67.1 °F 64.8 °F 29.99 in Calm     92 % 0.00 in
08:00 68.2 °F 65.1 °F 30.00 in Calm     90 % 0.00 in
08:05 69.1 °F 65.1 °F 30.00 in Calm   1.0 mph 87 % 0.00 in
08:10 69.3 °F 64.6 °F 30.00 in Calm   2.0 mph 85 % 0.00 in
08:15 70.2 °F 64.4 °F 30.00 in Calm   2.0 mph 82 % 0.00 in
08:16 70.3 °F 64.6 °F 30.00 in Calm   2.0 mph 82 % 0.00 in
08:21 70.9 °F 64.4 °F 30.01 in ESE 1.0 mph 2.0 mph 80 % 0.00 in
08:26 71.2 °F 64.0 °F 30.01 in ESE 2.0 mph 3.0 mph 78 % 0.00 in
08:31 71.4 °F 63.9 °F 30.01 in ESE 1.0 mph 3.0 mph 77 % 0.00 in
08:36 72.0 °F 64.0 °F 30.01 in ESE 2.0 mph 3.0 mph 76 % 0.00 in
08:41 72.1 °F 63.9 °F 30.01 in East 2.0 mph 3.0 mph 75 % 0.00 in
08:46 72.7 °F 64.8 °F 30.01 in ESE 3.0 mph 4.0 mph 76 % 0.00 in
08:51 73.2 °F 64.4 °F 30.01 in SE 1.0 mph 4.0 mph 74 % 0.00 in
08:56 73.9 °F 64.8 °F 30.01 in ESE 6.0 mph 6.0 mph 73 % 0.00 in
09:01 73.9 °F 64.4 °F 30.01 in SSE 3.0 mph 6.0 mph 72 % 0.00 in
09:06 74.1 °F 64.0 °F 30.01 in SSE 2.0 mph 6.0 mph 71 % 0.00 in
09:07 74.1 °F 64.6 °F 30.01 in SE 3.0 mph 6.0 mph 72 % 0.00 in
09:12 74.7 °F 64.6 °F 30.02 in SSW 3.0 mph 6.0 mph 71 % 0.00 in
09:17 75.0 °F 64.6 °F 30.02 in SW 2.0 mph 6.0 mph 70 % 0.00 in
09:19 75.2 °F 64.4 °F 30.02 in SW 1.0 mph 6.0 mph 69 % 0.00 in
09:24 75.6 °F 64.8 °F 30.02 in SSE 3.0 mph 8.0 mph 69 % 0.00 in
09:29 76.1 °F 64.8 °F 30.02 in SSW 3.0 mph 8.0 mph 68 % 0.00 in
09:34 76.3 °F 64.9 °F 30.02 in SSW 2.0 mph 8.0 mph 68 % 0.00 in
09:39 76.8 °F 64.6 °F 30.02 in South 4.0 mph 8.0 mph 66 % 0.00 in
09:44 77.2 °F 64.6 °F 30.02 in WSW 2.0 mph 8.0 mph 65 % 0.00 in
09:49 77.5 °F 64.8 °F 30.02 in SW 1.0 mph 7.0 mph 65 % 0.00 in
09:54 77.7 °F 63.7 °F 30.02 in ESE 3.0 mph 8.0 mph 62 % 0.00 in
09:59 77.9 °F 63.9 °F 30.02 in South 3.0 mph 8.0 mph 62 % 0.00 in
10:04 78.3 °F 63.3 °F 30.02 in SW 3.0 mph 8.0 mph 60 % 0.00 in
10:09 78.4 °F 63.3 °F 30.02 in SSE 3.0 mph 10.0 mph 60 % 0.00 in
10:14 78.6 °F 63.5 °F 30.02 in WSW 1.0 mph 10.0 mph 60 % 0.00 in
10:19 79.3 °F 64.2 °F 30.02 in ESE 4.0 mph 10.0 mph 60 % 0.00 in
10:24 79.3 °F 62.2 °F 30.02 in South 3.0 mph 8.0 mph 56 % 0.00 in
10:29 79.3 °F 61.7 °F 30.02 in SSE 4.0 mph 8.0 mph 55 % 0.00 in
10:34 79.3 °F 62.2 °F 30.02 in South 4.0 mph 8.0 mph 56 % 0.00 in
10:39 79.5 °F 61.9 °F 30.02 in SSW 5.0 mph 9.0 mph 55 % 0.00 in
10:44 79.5 °F 61.9 °F 30.03 in SE 5.0 mph 9.0 mph 55 % 0.00 in
10:49 80.1 °F 61.3 °F 30.02 in ENE 3.0 mph 9.0 mph 53 % 0.00 in
10:54 79.9 °F 61.2 °F 30.02 in SSE 6.0 mph 9.0 mph 53 % 0.00 in
10:59 79.9 °F 60.1 °F 30.03 in SSW 2.0 mph 9.0 mph 51 % 0.00 in
11:04 79.9 °F 60.6 °F 30.02 in SSE 6.0 mph 10.0 mph 52 % 0.00 in
11:09 80.1 °F 60.3 °F 30.02 in ESE 3.0 mph 10.0 mph 51 % 0.00 in
11:14 80.1 °F 59.7 °F 30.02 in South 5.0 mph 10.0 mph 50 % 0.00 in
11:19 80.4 °F 61.7 °F 30.02 in Calm   13.0 mph 53 % 0.00 in
11:24 81.5 °F 61.7 °F 30.02 in SSE 3.0 mph 13.0 mph 51 % 0.00 in
11:26 81.7 °F 62.4 °F 30.02 in SSE 5.0 mph 13.0 mph 52 % 0.00 in
11:31 81.5 °F 61.0 °F 30.02 in South 4.0 mph 9.0 mph 50 % 0.00 in
11:36 81.3 °F 62.1 °F 30.02 in East 4.0 mph 9.0 mph 52 % 0.00 in
11:41 81.1 °F 61.9 °F 30.02 in SE 3.0 mph 9.0 mph 52 % 0.00 in
11:46 81.3 °F 61.0 °F 30.02 in SSE 5.0 mph 11.0 mph 50 % 0.00 in
11:51 81.7 °F 61.2 °F 30.02 in ESE 9.0 mph 11.0 mph 50 % 0.00 in
11:56 81.3 °F 61.0 °F 30.02 in SSW 3.0 mph 12.0 mph 50 % 0.00 in
12:01 80.6 °F 61.3 °F 30.02 in SE 5.0 mph 12.0 mph 52 % 0.00 in
12:06 80.4 °F 62.2 °F 30.01 in South 4.0 mph 12.0 mph 54 % 0.00 in
12:11 80.4 °F 61.2 °F 30.02 in SSW 4.0 mph 10.0 mph 52 % 0.00 in
12:16 80.6 °F 61.9 °F 30.01 in SSE 6.0 mph 8.0 mph 53 % 0.00 in
12:21 80.8 °F 61.5 °F 30.01 in South 4.0 mph 8.0 mph 52 % 0.00 in
12:26 81.1 °F 61.9 °F 30.01 in ESE 9.0 mph 12.0 mph 52 % 0.00 in
12:31 81.0 °F 60.6 °F 30.00 in SE 9.0 mph 13.0 mph 50 % 0.00 in
12:36 81.0 °F 61.2 °F 30.00 in East 3.0 mph 13.0 mph 51 % 0.00 in
12:41 81.1 °F 60.8 °F 30.00 in SE 6.0 mph 13.0 mph 50 % 0.00 in
12:46 81.3 °F 61.0 °F 30.00 in SE 8.0 mph 13.0 mph 50 % 0.00 in
12:51 81.3 °F 60.3 °F 30.00 in SE 6.0 mph 13.0 mph 49 % 0.00 in
12:56 81.5 °F 60.4 °F 30.00 in West 1.0 mph 13.0 mph 49 % 0.00 in
13:01 81.9 °F 61.3 °F 29.99 in SSE 7.0 mph 13.0 mph 50 % 0.00 in
13:06 81.9 °F 60.8 °F 29.99 in East 3.0 mph 12.0 mph 49 % 0.00 in
13:11 82.2 °F 61.2 °F 29.99 in SE 4.0 mph 13.0 mph 49 % 0.00 in
13:16 82.8 °F 61.0 °F 29.99 in SE 7.0 mph 13.0 mph 48 % 0.00 in
13:21 82.8 °F 62.2 °F 29.99 in South 4.0 mph 13.0 mph 50 % 0.00 in
13:26 82.9 °F 61.2 °F 29.99 in SSE 4.0 mph 9.0 mph 48 % 0.00 in
13:31 82.6 °F 60.3 °F 29.99 in ESE 8.0 mph 9.0 mph 47 % 0.00 in
13:37 82.9 °F 60.6 °F 29.99 in SE 6.0 mph 9.0 mph 47 % 0.00 in
13:42 83.7 °F 61.3 °F 29.99 in SSE 3.0 mph 12.0 mph 47 % 0.00 in
13:47 83.7 °F 61.3 °F 29.98 in SE 7.0 mph 13.0 mph 47 % 0.00 in
13:52 83.7 °F 60.6 °F 29.98 in ENE 5.0 mph 13.0 mph 46 % 0.00 in
13:57 83.1 °F 60.8 °F 29.98 in SSE 3.0 mph 13.0 mph 47 % 0.00 in
14:02 83.3 °F 61.0 °F 29.98 in ESE 4.0 mph 12.0 mph 47 % 0.00 in
14:07 83.5 °F 61.2 °F 29.98 in SSW 2.0 mph 12.0 mph 47 % 0.00 in
14:12 82.9 °F 61.2 °F 29.98 in ESE 2.0 mph 12.0 mph 48 % 0.00 in
14:17 83.1 °F 60.3 °F 29.97 in SSE 1.0 mph 12.0 mph 46 % 0.00 in
14:22 83.1 °F 61.3 °F 29.97 in SE 3.0 mph 9.0 mph 48 % 0.00 in
14:27 83.8 °F 60.8 °F 29.97 in ESE 5.0 mph 9.0 mph 46 % 0.00 in
14:32 84.4 °F 61.3 °F 29.97 in East 3.0 mph 11.0 mph 46 % 0.00 in
14:37 84.7 °F 59.7 °F 29.97 in SSW 6.0 mph 13.0 mph 43 % 0.00 in
14:42 84.6 °F 60.3 °F 29.97 in SE 3.0 mph 13.0 mph 44 % 0.00 in
14:47 84.6 °F 60.8 °F 29.97 in SE 3.0 mph 13.0 mph 45 % 0.00 in
14:52 84.6 °F 61.5 °F 29.96 in ENE 5.0 mph 13.0 mph 46 % 0.00 in
14:57 84.6 °F 62.1 °F 29.96 in East 3.0 mph 10.0 mph 47 % 0.00 in
15:02 84.7 °F 61.0 °F 29.96 in SE 7.0 mph 12.0 mph 45 % 0.00 in
15:07 84.6 °F 60.8 °F 29.96 in ESE 3.0 mph 12.0 mph 45 % 0.00 in
15:12 84.6 °F 60.3 °F 29.96 in Calm   12.0 mph 44 % 0.00 in
15:17 84.6 °F 60.3 °F 29.96 in NNW 2.0 mph 12.0 mph 44 % 0.00 in
15:22 84.4 °F 60.8 °F 29.96 in ESE 5.0 mph 12.0 mph 45 % 0.00 in
15:27 84.6 °F 60.3 °F 29.95 in ESE 9.0 mph 12.0 mph 44 % 0.00 in
15:32 84.2 °F 59.4 °F 29.95 in South 7.0 mph 14.0 mph 43 % 0.00 in
15:37 83.8 °F 59.0 °F 29.95 in SSE 10.0 mph 14.0 mph 43 % 0.00 in
15:42 83.8 °F 59.0 °F 29.95 in ESE 2.0 mph 14.0 mph 43 % 0.00 in
15:47 83.7 °F 58.8 °F 29.95 in East 4.0 mph 13.0 mph 43 % 0.00 in
15:52 83.8 °F 59.5 °F 29.94 in ENE 7.0 mph 13.0 mph 44 % 0.00 in
15:57 83.8 °F 59.5 °F 29.94 in ENE 8.0 mph 13.0 mph 44 % 0.00 in
16:02 83.5 °F 58.6 °F 29.94 in ESE 5.0 mph 13.0 mph 43 % 0.00 in
16:07 83.1 °F 59.0 °F 29.94 in ENE 4.0 mph 13.0 mph 44 % 0.00 in
16:12 83.3 °F 58.5 °F 29.94 in South 1.0 mph 13.0 mph 43 % 0.00 in
16:17 82.9 °F 58.8 °F 29.94 in SE 4.0 mph 11.0 mph 44 % 0.00 in
16:19 82.9 °F 58.1 °F 29.94 in SSE 7.0 mph 11.0 mph 43 % 0.00 in
16:24 82.4 °F 59.0 °F 29.94 in NE 3.0 mph 13.0 mph 45 % 0.00 in
16:29 82.6 °F 58.5 °F 29.94 in SSE 6.0 mph 13.0 mph 44 % 0.00 in
16:34 82.8 °F 58.6 °F 29.94 in SSE 8.0 mph 13.0 mph 44 % 0.00 in
16:39 83.1 °F 59.5 °F 29.94 in SSE 4.0 mph 13.0 mph 45 % 0.00 in
16:44 83.1 °F 58.3 °F 29.94 in SSW 6.0 mph 13.0 mph 43 % 0.00 in
16:49 82.8 °F 57.9 °F 29.93 in ESE 6.0 mph 14.0 mph 43 % 0.00 in
16:54 82.6 °F 58.5 °F 29.93 in ENE 9.0 mph 14.0 mph 44 % 0.00 in
16:59 82.8 °F 58.6 °F 29.93 in SSE 4.0 mph 14.0 mph 44 % 0.00 in
17:04 82.8 °F 57.9 °F 29.93 in SW 3.0 mph 12.0 mph 43 % 0.00 in
17:09 82.6 °F 57.7 °F 29.93 in South 9.0 mph 12.0 mph 43 % 0.00 in
17:14 82.2 °F 58.1 °F 29.93 in SSW 5.0 mph 13.0 mph 44 % 0.00 in
17:19 82.2 °F 57.6 °F 29.93 in SE 5.0 mph 13.0 mph 43 % 0.00 in
17:24 81.7 °F 57.6 °F 29.93 in SE 5.0 mph 13.0 mph 44 % 0.00 in
17:29 81.3 °F 57.4 °F 29.93 in SSW 6.0 mph 11.0 mph 44 % 0.00 in
17:34 81.5 °F 57.6 °F 29.93 in South 4.0 mph 13.0 mph 44 % 0.00 in
17:39 81.3 °F 57.9 °F 29.93 in ESE 6.0 mph 13.0 mph 45 % 0.00 in
17:44 81.1 °F 57.2 °F 29.93 in East 2.0 mph 13.0 mph 44 % 0.00 in
17:49 81.0 °F 57.6 °F 29.93 in SE 2.0 mph 11.0 mph 45 % 0.00 in
17:54 81.1 °F 57.2 °F 29.93 in SSE 7.0 mph 11.0 mph 44 % 0.00 in
17:59 81.0 °F 57.0 °F 29.93 in SSE 6.0 mph 11.0 mph 44 % 0.00 in
18:04 80.8 °F 56.1 °F 29.93 in ESE 8.0 mph 13.0 mph 43 % 0.00 in
18:09 80.4 °F 56.5 °F 29.93 in SE 8.0 mph 13.0 mph 44 % 0.00 in
18:14 80.1 °F 56.8 °F 29.93 in NNE 3.0 mph 13.0 mph 45 % 0.00 in
18:19 79.7 °F 55.9 °F 29.93 in SSE 7.0 mph 12.0 mph 44 % 0.00 in
18:24 79.9 °F 56.7 °F 29.93 in ESE 3.0 mph 12.0 mph 45 % 0.00 in
18:29 79.9 °F 57.2 °F 29.93 in East 2.0 mph 10.0 mph 46 % 0.00 in
18:34 80.2 °F 57.0 °F 29.94 in SSE 2.0 mph 10.0 mph 45 % 0.00 in
18:39 79.9 °F 57.2 °F 29.93 in East 6.0 mph 10.0 mph 46 % 0.00 in
18:44 79.3 °F 56.8 °F 29.94 in NE 4.0 mph 12.0 mph 46 % 0.00 in
18:49 79.0 °F 57.0 °F 29.94 in ESE 4.0 mph 12.0 mph 47 % 0.00 in
18:54 78.4 °F 55.9 °F 29.94 in SE 4.0 mph 12.0 mph 46 % 0.00 in
18:59 78.3 °F 56.3 °F 29.94 in East 7.0 mph 12.0 mph 47 % 0.00 in
19:04 78.3 °F 56.3 °F 29.94 in East 7.0 mph 12.0 mph 47 % 0.00 in
19:09 78.1 °F 56.3 °F 29.94 in SSE 7.0 mph 12.0 mph 47 % 0.00 in
19:14 77.7 °F 56.5 °F 29.94 in ESE 3.0 mph 11.0 mph 48 % 0.00 in
19:19 77.4 °F 56.1 °F 29.94 in ESE 4.0 mph 11.0 mph 48 % 0.00 in
19:24 77.2 °F 56.5 °F 29.94 in ESE 7.0 mph 12.0 mph 49 % 0.00 in
19:29 76.8 °F 56.3 °F 29.94 in ESE 2.0 mph 12.0 mph 49 % 0.00 in
19:34 76.6 °F 55.4 °F 29.94 in ENE 10.0 mph 12.0 mph 48 % 0.00 in
19:39 76.5 °F 55.9 °F 29.94 in SE 4.0 mph 10.0 mph 49 % 0.00 in
19:44 76.3 °F 55.8 °F 29.94 in SE 2.0 mph 10.0 mph 49 % 0.00 in
19:49 75.9 °F 55.9 °F 29.94 in SE 5.0 mph 10.0 mph 50 % 0.00 in
19:54 75.7 °F 55.8 °F 29.94 in SE 3.0 mph 10.0 mph 50 % 0.00 in
19:59 75.6 °F 56.1 °F 29.94 in ESE 3.0 mph 10.0 mph 51 % 0.00 in
20:05 75.4 °F 57.0 °F 29.94 in ESE 3.0 mph 7.0 mph 53 % 0.00 in
20:10 75.0 °F 57.2 °F 29.94 in SE 3.0 mph 7.0 mph 54 % 0.00 in
20:15 74.8 °F 57.6 °F 29.95 in SE 4.0 mph 8.0 mph 55 % 0.00 in
20:20 74.7 °F 57.9 °F 29.94 in ESE 2.0 mph 8.0 mph 56 % 0.00 in
20:25 74.5 °F 58.3 °F 29.95 in SE 5.0 mph 8.0 mph 57 % 0.00 in
20:30 74.1 °F 58.5 °F 29.95 in ESE 2.0 mph 8.0 mph 58 % 0.00 in
20:35 73.9 °F 58.6 °F 29.95 in SE 5.0 mph 8.0 mph 59 % 0.00 in
20:40 73.9 °F 58.6 °F 29.95 in ESE 2.0 mph 8.0 mph 59 % 0.00 in
20:45 73.8 °F 59.0 °F 29.95 in ESE 2.0 mph 7.0 mph 60 % 0.00 in
20:50 73.6 °F 58.8 °F 29.95 in SE 3.0 mph 9.0 mph 60 % 0.00 in
20:55 73.4 °F 59.2 °F 29.95 in SE 4.0 mph 9.0 mph 61 % 0.00 in
21:00 73.2 °F 59.0 °F 29.95 in ESE 3.0 mph 9.0 mph 61 % 0.00 in
21:01 73.2 °F 59.0 °F 29.95 in SSE 2.0 mph 9.0 mph 61 % 0.00 in
21:06 73.0 °F 59.2 °F 29.95 in SE 4.0 mph 6.0 mph 62 % 0.00 in
21:11 72.9 °F 59.0 °F 29.95 in ESE 4.0 mph 8.0 mph 62 % 0.00 in
21:16 72.9 °F 59.0 °F 29.96 in SSE 3.0 mph 8.0 mph 62 % 0.00 in
21:21 72.7 °F 59.4 °F 29.96 in SE 1.0 mph 8.0 mph 63 % 0.00 in
21:26 72.5 °F 59.2 °F 29.96 in ESE 3.0 mph 6.0 mph 63 % 0.00 in
21:31 72.3 °F 59.0 °F 29.96 in ESE 3.0 mph 6.0 mph 63 % 0.00 in
21:36 72.3 °F 59.5 °F 29.96 in SE 3.0 mph 6.0 mph 64 % 0.00 in
21:41 72.1 °F 59.4 °F 29.96 in SE 2.0 mph 6.0 mph 64 % 0.00 in
21:46 72.0 °F 59.5 °F 29.96 in SE 4.0 mph 6.0 mph 65 % 0.00 in
21:51 72.0 °F 59.5 °F 29.97 in East 3.0 mph 6.0 mph 65 % 0.00 in
21:56 71.8 °F 59.7 °F 29.97 in ESE 3.0 mph 7.0 mph 66 % 0.00 in
22:01 71.8 °F 59.7 °F 29.97 in ESE 3.0 mph 7.0 mph 66 % 0.00 in
22:06 71.6 °F 60.1 °F 29.98 in SE 4.0 mph 8.0 mph 67 % 0.00 in
22:11 71.6 °F 60.1 °F 29.98 in East 4.0 mph 8.0 mph 67 % 0.00 in
22:16 71.4 °F 59.9 °F 29.98 in ESE 1.0 mph 8.0 mph 67 % 0.00 in
22:21 71.4 °F 60.3 °F 29.98 in SE 2.0 mph 6.0 mph 68 % 0.00 in
22:26 71.4 °F 60.3 °F 29.98 in SE 1.0 mph 5.0 mph 68 % 0.00 in
22:31 71.1 °F 59.9 °F 29.98 in SSE 1.0 mph 5.0 mph 68 % 0.00 in
22:36 70.9 °F 60.3 °F 29.98 in SE 2.0 mph 4.0 mph 69 % 0.00 in
22:41 70.7 °F 60.1 °F 29.98 in SSE 1.0 mph 3.0 mph 69 % 0.00 in
22:46 70.5 °F 60.3 °F 29.99 in SSE 1.0 mph 3.0 mph 70 % 0.00 in
22:51 70.3 °F 60.1 °F 29.99 in Calm   3.0 mph 70 % 0.00 in
22:56 70.2 °F 60.3 °F 29.99 in SE 1.0 mph 2.0 mph 71 % 0.00 in
23:01 70.0 °F 60.1 °F 29.99 in Calm   2.0 mph 71 % 0.00 in
23:06 70.0 °F 60.6 °F 29.99 in Calm   2.0 mph 72 % 0.00 in
23:11 69.6 °F 60.3 °F 29.99 in Calm   2.0 mph 72 % 0.00 in
23:16 69.6 °F 60.6 °F 29.99 in SE 1.0 mph 3.0 mph 73 % 0.00 in
23:21 69.6 °F 60.6 °F 29.99 in Calm   3.0 mph 73 % 0.00 in
23:26 69.6 °F 60.6 °F 29.99 in ESE 1.0 mph 3.0 mph 73 % 0.00 in
23:31 69.4 °F 60.4 °F 29.99 in Calm   2.0 mph 73 % 0.00 in
23:36 69.1 °F 60.1 °F 29.99 in Calm   2.0 mph 73 % 0.00 in
23:41 69.1 °F 60.8 °F 29.99 in East 3.0 mph 3.0 mph 75 % 0.00 in
23:46 69.1 °F 60.8 °F 29.98 in ESE 1.0 mph 3.0 mph 75 % 0.00 in
23:51 69.1 °F 60.8 °F 29.99 in Calm   3.0 mph 75 % 0.00 in
23:56 68.9 °F 60.6 °F 29.99 in Calm   3.0 mph 75 % 0.00 in
Spring, Texas: Villages of Bridgestone
Compliments of Weather Underground - 2.75 mb

Script developed by  Jim McMurry - jmcmurry@mwt.net Adapted for the template by  Wim van der Kuil - Leuven-Template.eu

You find our weather info also at:

UK Metoffice

WeatherCloud

Weather Underground

Mid-South Weather Network

AWEKAS

Citizen Weather Observer Program (CWOP)

HAMweather, WeatherForYou, PWS Weather

Equipment we use:

Weather-station
Davis Vantage Vue

Weather-program
Meteohub

Weather-server
Debian 7.9 x86 (Guest)

Provider
DreamHost

Davis Vantage Vue

Meteohub

Debian 7.9 x86 (Guest)

DreamHost